Weather History for Ashtabula, OH

Change the Weather History Date:

Sunday, February 17, 2013

  Actual Average (KYNG) Record (KYNG)
Temperature  
Mean Temperature 16 °F 29 °F  
Max Temperature 19 °F 37 °F 61 °F (2006)
Min Temperature 10 °F 21 °F -14 °F (1979)
Degree Days  
Heating Degree Days 50 36  
Month to date heating degree days 641  
Since 1 July heating degree days 4264  
Cooling Degree Days 0 0  
Month to date cooling degree days 0  
Year to date cooling degree days 0  
Moisture  
Dew Point 11 °F    
Average Humidity 76    
Maximum Humidity 86    
Minimum Humidity 62    
Precipitation  
Precipitation 0.06 in 0.08 in 0.73 in (1961)
Month to date precipitation 1.27  
Year to date precipitation 3.82  
Snow  
Snow 0.00 in 0.40 in - ()
Month to date snowfall 7.6  
Since 1 July snowfall 43.6  
Snow Depth -    
Sea Level Pressure  
Sea Level Pressure 30.06 in    
Wind  
Wind Speed 4 mph (NW)    
Max Wind Speed 15 mph    
Max Gust Speed 18 mph    
Visibility 4 miles    
Events Snow    
T = Trace of Precipitation, MM = Missing Value Source: NWS Daily Summary

Daily Weather History Graph

Daily Weather History Graph

Search for Another Location

Airport:

Trip Planner

Search our weather history database for the weather conditions in past years. The results will help you decide how hot, cold, wet, or windy it might be!

Date:

Astronomy

Feb. 17, 2013 Rise Set
Actual Time 7:15 AM EST 5:58 PM EST
Civil Twilight 6:46 AM EST 6:27 PM EST
Nautical Twilight 6:14 AM EST 6:59 PM EST
Astronomical Twilight 5:42 AM EST 7:32 PM EST
Moon 11:00 AM EST (2/17) 12:59 AM EST (2/17)
Length of Visible Light 11h 40m
Length of Day
10h 43m
Waxing Crescent, 49% of the Moon is Illuminated
Feb 17
Waxing Crescent
Feb 17
First Quarter
Feb 25
Full
Mar 4
Last Quarter
Mar 11
New

Hourly Weather History & Observations

Time (EST) Temp. Windchill Dew Point Humidity Pressure Visibility Wind Dir Wind Speed Gust Speed Precip Events Conditions
12:28 AM 19.4 °F 14.3 °F 14.0 °F 80% 29.94 in 3.0 mi West 3.5 mph - 0.00 in Snow Light Snow
12:53 AM 19.9 °F - 14.0 °F 78% 29.98 in 3.0 mi Calm Calm - 0.00 in Snow Light Snow
1:41 AM 19.4 °F 14.3 °F 14.0 °F 80% 29.93 in 2.0 mi SW 3.5 mph - 0.00 in Snow Light Snow
1:47 AM 19.4 °F - 14.0 °F 80% 29.93 in 1.0 mi Calm Calm - 0.00 in Snow Light Snow
1:53 AM 19.0 °F - 14.0 °F 81% 29.97 in 0.8 mi Calm Calm - 0.00 in Snow Light Snow
2:02 AM 19.4 °F - 14.0 °F 80% 29.93 in 1.0 mi Calm Calm - 0.01 in Snow Light Snow
2:29 AM 19.4 °F - 15.8 °F 86% 29.94 in 0.8 mi Calm Calm - 0.02 in Snow Light Snow
2:33 AM 19.4 °F - 15.8 °F 86% 29.94 in 1.2 mi Calm Calm - 0.02 in Snow Light Snow
2:42 AM 19.4 °F - 14.0 °F 80% 29.94 in 3.0 mi Calm Calm - 0.02 in Snow Light Snow
2:53 AM 19.0 °F - 14.0 °F 81% 29.98 in 4.0 mi Calm Calm - 0.02 in Snow Light Snow
2:59 AM 19.4 °F - 15.8 °F 86% 29.94 in 1.8 mi Calm Calm - 0.00 in Snow Light Snow
3:12 AM 19.4 °F - 15.8 °F 86% 29.94 in 1.5 mi Calm Calm - 0.00 in Snow Light Snow
3:17 AM 19.4 °F - 15.8 °F 86% 29.94 in 1.0 mi Calm Calm - 0.01 in Snow Light Snow
3:22 AM 19.4 °F 12.8 °F 15.8 °F 86% 29.94 in 0.5 mi NNW 4.6 mph - 0.01 in Snow Snow
3:46 AM 19.4 °F - 14.0 °F 80% 29.95 in 1.0 mi Calm Calm - 0.03 in Snow Light Snow
3:53 AM 19.0 °F - 14.0 °F 81% 29.99 in 1.8 mi Calm Calm - 0.03 in Snow Light Snow
4:00 AM 19.4 °F 14.3 °F 14.0 °F 80% 29.95 in 1.5 mi NNW 3.5 mph - 0.00 in Snow Light Snow
4:10 AM 19.4 °F 12.8 °F 14.0 °F 80% 29.95 in 3.0 mi NNW 4.6 mph - 0.00 in Snow Light Snow
4:24 AM 17.6 °F 10.7 °F 14.0 °F 86% 29.95 in 8.0 mi NNW 4.6 mph - 0.00 in   Overcast
4:32 AM 19.4 °F 12.8 °F 14.0 °F 80% 29.96 in 10.0 mi NNW 4.6 mph - 0.00 in   Overcast
4:53 AM 19.0 °F 11.1 °F 12.9 °F 77% 30.00 in 9.0 mi North 5.8 mph - 0.00 in   Overcast
5:23 AM 17.6 °F 8.2 °F 12.2 °F 79% 29.97 in 6.0 mi NNW 6.9 mph - 0.01 in   Haze
5:45 AM 17.6 °F 10.7 °F 12.2 °F 79% 29.98 in 3.0 mi NNW 4.6 mph - 0.01 in Snow Light Snow
5:53 AM 17.1 °F 10.0 °F 12.0 °F 81% 30.02 in 5.0 mi NNW 4.6 mph - 0.01 in Snow Light Snow
6:53 AM 17.1 °F 8.7 °F 10.9 °F 77% 30.04 in 3.0 mi North 5.8 mph - 0.00 in Snow Light Snow
7:00 AM 17.6 °F 10.7 °F 10.4 °F 73% 30.00 in 2.0 mi NNW 4.6 mph - 0.00 in Snow Light Snow
7:11 AM 17.6 °F 10.7 °F 10.4 °F 73% 30.01 in 4.0 mi NNW 4.6 mph - 0.00 in Snow Light Snow
7:26 AM 17.6 °F 9.3 °F 10.4 °F 73% 30.01 in 1.8 mi NNW 5.8 mph - 0.00 in Snow Light Snow
7:36 AM 15.8 °F 6.1 °F 10.4 °F 79% 30.02 in 2.5 mi NNW 6.9 mph - 0.00 in Snow Light Snow
7:45 AM 15.8 °F 10.2 °F 10.4 °F 79% 30.02 in 5.0 mi NNW 3.5 mph - 0.00 in Snow Light Snow
7:53 AM 15.1 °F 7.7 °F 10.0 °F 80% 30.07 in 8.0 mi NNW 4.6 mph - 0.00 in Snow Light Snow
8:12 AM 15.8 °F 8.6 °F 8.6 °F 73% 30.03 in 8.0 mi NNW 4.6 mph - 0.00 in Snow Light Snow
8:28 AM 15.8 °F 8.6 °F 8.6 °F 73% 30.03 in 10.0 mi NW 4.6 mph - 0.00 in   Scattered Clouds
8:53 AM 17.1 °F 10.0 °F 10.0 °F 74% 30.09 in 10.0 mi NNW 4.6 mph - 0.00 in   Mostly Cloudy
9:53 AM 18.0 °F 5.4 °F 10.0 °F 71% 30.10 in 4.0 mi NNW 11.5 mph - 0.00 in Snow Light Snow
10:03 AM 17.6 °F 8.2 °F 10.4 °F 73% 30.06 in 1.8 mi North 6.9 mph 16.1 mph 0.00 in Snow Light Snow
10:08 AM 17.6 °F 5.7 °F 10.4 °F 73% 30.06 in 2.0 mi NW 10.4 mph 16.1 mph 0.00 in Snow Light Snow
10:18 AM 17.6 °F 7.3 °F 10.4 °F 73% 30.07 in 3.0 mi NNW 8.1 mph - 0.00 in Snow Light Snow
10:20 AM 17.6 °F 8.2 °F 10.4 °F 73% 30.07 in 2.0 mi North 6.9 mph - 0.00 in Snow Light Snow
10:23 AM 17.6 °F 8.2 °F 10.4 °F 73% 30.07 in 1.5 mi NNW 6.9 mph - 0.00 in Snow Light Snow
10:30 AM 17.6 °F 7.3 °F 10.4 °F 73% 30.07 in 1.0 mi North 8.1 mph - 0.00 in Snow Light Snow
10:38 AM 17.6 °F 6.4 °F 10.4 °F 73% 30.07 in 0.8 mi NW 9.2 mph - 0.00 in Snow Light Snow
10:53 AM 17.1 °F 7.6 °F 10.9 °F 77% 30.12 in 0.8 mi NNW 6.9 mph - 0.00 in Snow Light Snow
11:06 AM 17.6 °F 7.3 °F 10.4 °F 73% 30.08 in 1.2 mi NW 8.1 mph - 0.00 in Snow Light Snow
11:15 AM 17.6 °F 6.4 °F 10.4 °F 73% 30.09 in 1.0 mi NW 9.2 mph - 0.00 in Snow Light Snow
11:26 AM 17.6 °F 6.4 °F 10.4 °F 73% 30.09 in 2.0 mi NW 9.2 mph - 0.00 in Snow Light Snow
11:30 AM 17.6 °F 9.3 °F 10.4 °F 73% 30.09 in 3.0 mi WNW 5.8 mph - 0.00 in Snow Light Snow
11:53 AM 17.1 °F 4.3 °F 8.1 °F 68% 30.14 in 5.0 mi NW 11.5 mph - 0.00 in Snow Light Snow
12:53 PM 17.1 °F 2.5 °F 9.0 °F 71% 30.14 in 7.0 mi West 15.0 mph 18.4 mph 0.00 in Snow Light Snow
1:53 PM 18.0 °F 6.1 °F 9.0 °F 68% 30.15 in 10.0 mi WNW 10.4 mph - 0.00 in   Overcast
2:33 PM 17.6 °F 8.2 °F 8.6 °F 68% 30.11 in 2.5 mi WNW 6.9 mph - 0.00 in Snow Light Snow
2:40 PM 17.6 °F 5.7 °F 8.6 °F 68% 30.11 in 3.0 mi WNW 10.4 mph 16.1 mph 0.00 in Snow Light Snow
2:53 PM 18.0 °F 6.1 °F 8.1 °F 65% 30.16 in 6.0 mi WNW 10.4 mph - 0.00 in Snow Light Snow
3:53 PM 17.1 °F 3.6 °F 6.1 °F 62% 30.17 in 10.0 mi WNW 12.7 mph - 0.00 in   Overcast
4:53 PM 17.1 °F 5.0 °F 7.0 °F 65% 30.18 in 10.0 mi WNW 10.4 mph - N/A   Overcast
5:53 PM 17.1 °F 5.0 °F 7.0 °F 65% 30.20 in 10.0 mi WNW 10.4 mph - N/A   Overcast
6:44 PM 17.6 °F 9.3 °F 8.6 °F 68% 30.17 in 7.0 mi WNW 5.8 mph - 0.00 in Snow Light Snow
6:53 PM 17.1 °F 10.0 °F 9.0 °F 71% 30.22 in 8.0 mi WNW 4.6 mph - 0.00 in Snow Light Snow
7:04 PM 17.6 °F 7.3 °F 10.4 °F 73% 30.17 in 1.8 mi West 8.1 mph - 0.00 in Snow Light Snow
7:25 PM 17.6 °F 9.3 °F 10.4 °F 73% 30.17 in 3.0 mi WNW 5.8 mph - 0.00 in Snow Light Snow
7:35 PM 17.6 °F 10.7 °F 10.4 °F 73% 30.17 in 9.0 mi West 4.6 mph - 0.00 in   Overcast
7:53 PM 16.0 °F 10.4 °F 9.0 °F 74% 30.23 in 10.0 mi WNW 3.5 mph - 0.00 in   Overcast
8:53 PM 14.0 °F 8.2 °F 7.0 °F 74% 30.25 in 10.0 mi WSW 3.5 mph - N/A   Overcast
9:53 PM 12.9 °F 6.9 °F 6.1 °F 74% 30.26 in 10.0 mi WSW 3.5 mph - N/A   Mostly Cloudy
10:53 PM 10.0 °F - 3.0 °F 73% 30.28 in 10.0 mi Calm Calm - N/A   Clear